Theta_e
323 323 322 322 322 321 320 320 320 319 318 319 319 319 319 319 319 319 319 318 318 318 319 320 323 325 327 321 321 331 349 352 335 333 336 333 330 328 323 324 325 323 323 325 329 330 331
322 322 322 321 322 321 321 320 320 319 318 318 318 318 318 318 318 318 318 318 317 317 318 321 324 325 326 315 329 332 330 338 339 338 336 334 331 330 326 323 323 324 324 324 328 329 331
322 322 322 322 322 321 321 320 320 319 318 319 318 318 318 318 318 318 317 317 317 317 319 322 325 327 319 317 327 332 332 332 339 339 334 335 334 330 328 323 325 324 321 323 324 326 327
322 322 322 322 321 321 320 321 319 319 319 318 318 318 318 318 317 317 316 316 316 318 320 323 326 326 316 322 325 328 332 331 334 336 335 336 335 331 329 328 324 321 321 316 322 324 326
322 322 321 321 321 321 321 320 320 320 320 319 318 317 318 318 318 317 316 315 317 320 322 325 327 323 314 320 318 328 332 329 333 335 336 334 334 329 327 321 318 319 312 315 318 324 323
322 322 321 321 321 321 320 320 320 319 320 319 317 317 317 318 317 315 315 315 320 321 323 326 321 315 317 313 321 327 331 331 329 331 330 329 328 324 323 320 310 313 314 315 314 321 321
322 322 321 321 320 320 320 320 320 318 319 319 317 316 316 316 315 314 316 321 317 317 319 314 314 312 314 322 324 324 329 327 328 327 322 326 321 318 320 322 321 318 315 313 317 319 319
323 322 321 320 320 320 320 319 319 317 317 317 317 316 316 315 314 314 316 318 316 317 312 316 314 313 317 320 315 322 329 321 320 318 323 322 317 322 323 320 318 317 315 314 317 319 319
324 322 321 320 320 320 320 318 318 316 316 316 316 316 315 314 313 315 319 318 321 321 312 314 315 312 314 317 315 319 325 322 318 317 319 318 320 324 321 319 317 317 315 314 315 318 319
324 322 321 320 320 319 318 318 317 316 315 316 316 315 314 312 313 322 317 321 322 323 307 309 311 313 315 316 312 322 325 321 318 314 318 320 324 321 318 317 319 312 317 315 314 313 308
323 322 321 320 319 318 318 317 317 315 314 314 315 315 313 312 318 317 321 324 324 322 298 312 312 319 316 313 315 316 326 321 315 315 318 318 319 318 317 317 319 315 319 316 314 314 313
323 321 320 319 319 318 318 317 316 314 314 314 314 313 312 318 320 323 324 325 320 305 298 307 312 311 311 312 314 317 318 322 321 316 317 319 325 323 320 321 319 320 317 316 316 314 307
323 320 320 319 319 318 317 316 315 315 314 313 312 311 312 321 322 325 324 321 305 300 311 306 307 310 310 309 312 313 312 312 311 307 310 316 319 322 323 318 320 318 314 307 306 306 306
322 320 319 318 318 318 317 315 315 314 314 312 310 308 316 321 328 324 322 312 301 305 308 312 309 310 307 310 311 311 311 309 313 312 312 310 310 317 321 319 316 315 315 307 300 303 306
322 320 319 319 319 317 316 315 314 314 313 311 309 325 324 326 326 324 316 304 305 308 312 310 309 306 307 310 311 311 311 310 312 314 310 310 312 320 321 323 321 315 313 316 309 311 306
321 319 319 318 317 316 316 315 314 314 313 310 318 325 325 326 325 320 312 303 309 313 317 316 306 308 306 309 309 309 311 314 312 315 319 316 310 318 319 321 320 318 319 310 309 302 302
322 319 317 316 316 315 315 315 314 314 311 310 319 320 325 326 322 314 306 308 312 317 317 313 311 308 309 309 310 309 310 313 316 315 319 318 315 314 318 315 314 314 313 313 313 311 305
317 316 315 315 315 315 315 314 314 312 309 313 320 314 325 324 309 310 307 311 308 314 318 315 315 313 310 311 310 310 310 313 317 318 314 319 315 311 312 319 320 319 314 313 308 308 307
314 314 314 314 314 313 313 313 313 312 310 314 319 320 323 320 305 307 310 310 313 314 314 313 311 314 314 311 309 310 311 315 316 317 316 319 314 308 309 315 317 314 315 316 314 315 306
312 312 312 312 312 312 312 313 313 312 310 314 319 313 314 314 314 311 310 309 309 315 313 314 314 316 314 310 313 310 311 314 315 317 328 322 315 313 307 310 314 311 314 314 314 309 309
310 310 311 311 312 314 315 314 314 312 310 314 320 317 315 306 309 311 313 311 309 310 315 316 313 312 313 309 309 310 312 313 314 319 320 319 313 314 315 316 315 311 314 312 312 314 311
310 310 310 310 312 314 316 315 315 312 310 316 320 321 323 314 313 310 307 311 311 312 313 313 313 314 315 312 312 311 313 314 312 317 317 320 313 315 312 314 315 313 312 313 314 314 314
309 310 310 311 312 315 315 316 314 312 310 318 322 325 322 313 313 309 310 311 312 315 317 319 317 317 313 316 318 319 319 319 318 317 317 317 315 313 308 313 311 308 313 314 316 316 316
309 309 310 310 312 316 315 316 315 313 311 316 319 318 319 314 314 312 312 314 314 316 319 322 322 319 323 326 323 322 319 320 320 320 321 317 316 314 309 313 302 316 322 319 314 316 317
308 308 309 310 311 314 316 316 315 315 313 315 320 319 320 317 320 316 320 319 321 323 321 321 324 328 329 325 318 314 313 315 317 320 319 319 317 311 310 308 313 315 317 316 314 315 319
309 308 308 309 310 311 314 315 314 314 313 314 320 324 318 318 319 323 322 322 319 319 321 322 326 329 325 322 316 311 307 312 311 313 320 319 319 313 311 305 303 316 319 322 320 310 322
310 309 307 308 308 309 311 313 313 313 312 312 319 325 320 318 324 323 322 321 324 322 322 324 323 322 326 319 312 310 309 316 310 311 312 313 314 312 310 309 314 321 322 322 308 315 323
311 309 308 307 308 308 309 311 312 312 312 312 318 327 320 318 321 324 323 322 323 324 320 324 321 323 322 318 313 314 312 315 312 316 316 314 313 309 313 303 308 324 322 314 326 327 324
310 311 309 308 307 308 309 310 310 311 311 311 316 323 322 315 317 323 324 325 324 325 321 324 324 325 325 323 315 318 313 319 318 312 324 315 320 317 317 318 327 327 327 330 329 328 327
Wind_Speed
12 12 14 14 13 13 14 14 14 14 13 12 12 13 14 14 15 15 15 13 12 13 14 15 17 16 13 11 8 11 7 7 10 11 11 9 11 9 6 7 8 8 6 9 6 5 10
14 13 13 14 13 13 14 14 14 15 15 14 14 13 13 14 15 15 15 14 12 12 13 15 16 18 10 14 7 6 1 8 13 13 13 9 6 6 9 3 6 5 4 11 11 7 7
13 13 14 13 13 13 13 14 15 14 15 14 14 14 14 15 15 16 15 14 13 12 13 14 14 8 11 8 3 8 7 7 10 12 13 6 5 12 8 10 4 7 13 12 7 7 8
12 13 13 13 13 13 13 13 15 14 13 14 15 15 15 14 16 16 17 15 14 13 13 14 11 11 9 4 7 9 10 11 11 11 12 8 7 10 13 3 12 13 8 8 11 6 6
12 12 13 13 13 13 13 13 14 14 14 14 16 16 16 15 15 15 16 18 17 13 12 11 10 11 11 7 13 14 15 13 12 12 9 6 10 13 7 16 15 10 11 7 12 7 2
12 12 13 13 13 13 13 13 14 15 13 15 16 16 15 16 16 16 20 17 6 6 9 10 9 9 9 13 15 13 12 14 13 14 12 11 11 16 14 17 3 8 4 9 1 13 4
11 11 12 13 14 13 14 14 15 16 15 15 17 16 18 16 15 15 17 7 8 10 15 12 6 8 5 6 2 11 13 14 16 16 17 18 16 17 16 5 8 7 6 3 6 6 6
8 10 11 12 13 13 14 15 15 17 16 16 17 16 16 18 16 14 9 10 9 8 9 21 14 11 4 6 13 19 19 16 18 18 20 20 18 14 4 2 6 8 8 5 5 5 10
7 8 10 11 12 13 14 15 15 17 16 17 17 15 17 19 20 8 12 10 5 7 9 16 16 16 12 13 13 21 21 20 17 21 22 23 17 7 8 11 12 14 10 8 11 9 11
6 7 8 10 12 13 14 15 15 17 17 16 16 15 16 22 8 2 9 9 7 6 8 15 14 11 16 13 16 18 19 19 12 20 22 23 17 9 10 15 9 6 1 2 5 12 8
4 6 7 8 11 12 14 14 15 17 18 18 17 14 15 8 13 8 8 4 6 6 9 20 17 15 16 18 9 18 20 22 18 16 18 18 20 14 14 13 3 4 7 5 4 13 11
4 6 6 9 9 10 12 13 15 18 19 20 18 17 16 7 8 13 6 4 8 9 9 11 13 15 18 21 12 21 16 20 14 16 20 21 22 12 17 9 6 6 8 7 14 14 12
5 4 6 7 10 11 12 14 15 16 20 21 19 18 10 10 2 1 7 8 9 13 8 12 17 21 21 16 18 19 23 20 17 16 19 19 20 11 12 9 11 12 19 11 10 8 3
4 4 5 8 11 11 12 16 17 17 21 23 25 20 9 11 6 8 7 10 12 15 9 7 14 20 21 21 20 20 22 21 23 19 14 18 20 21 15 19 12 18 20 9 10 10 6
6 5 6 8 10 11 12 13 15 18 19 24 31 7 9 7 12 6 9 13 13 5 6 8 11 17 20 18 13 19 20 21 22 22 20 19 20 22 20 20 15 8 15 14 13 9 7
7 5 5 8 9 11 13 15 16 18 21 25 8 7 6 7 12 9 10 18 17 4 8 9 14 16 20 22 17 18 18 19 21 24 21 15 16 21 22 6 12 13 14 9 10 13 7
7 3 7 9 10 12 14 16 17 19 24 23 8 7 8 9 9 9 12 20 14 6 5 8 14 14 18 19 18 17 16 13 16 19 22 13 16 12 16 15 19 14 13 12 11 11 2
12 8 8 10 11 13 14 16 16 17 25 12 7 7 6 11 10 12 14 21 8 6 11 6 9 11 17 17 18 16 14 13 15 16 21 19 16 14 16 24 25 18 16 20 9 5 12
10 10 10 12 12 14 16 16 15 12 12 9 7 5 6 11 10 12 18 20 18 13 9 6 8 12 10 16 15 17 15 16 18 18 16 16 11 11 11 11 10 14 7 10 11 12 16
12 13 14 14 14 15 15 15 13 11 9 6 7 6 8 9 15 18 14 17 15 15 16 15 13 15 14 16 14 15 15 13 13 22 13 15 20 11 6 12 18 20 9 8 14 3 4
13 13 14 15 15 16 15 13 12 11 9 6 7 9 4 10 14 16 18 13 18 14 14 9 15 16 14 14 18 17 17 14 14 15 15 18 17 14 11 10 18 12 18 2 8 13 11
14 14 14 15 17 18 17 10 12 14 15 7 8 6 7 13 14 17 14 13 12 11 11 12 14 18 18 16 17 13 19 14 20 17 20 20 11 7 8 12 13 20 2 1 2 6 6
13 14 14 15 17 19 9 10 9 14 16 5 7 9 6 10 15 13 15 17 13 11 12 15 11 15 19 17 13 13 13 17 19 16 18 19 8 7 11 9 6 9 10 5 6 2 6
12 13 14 15 17 19 10 9 8 9 12 9 6 6 8 13 11 11 16 16 15 13 12 8 11 9 15 9 17 13 19 22 23 21 16 15 12 8 4 6 11 11 8 8 2 5 2
10 12 14 14 16 17 13 11 10 9 11 11 7 5 8 11 11 7 4 5 9 11 14 15 16 12 7 11 15 15 13 20 26 24 24 19 13 10 6 16 10 12 11 7 2 5 3
10 10 12 13 15 15 15 13 12 11 13 11 7 4 6 8 5 8 8 8 11 10 8 11 3 9 9 10 15 15 7 13 7 6 12 16 13 9 11 12 6 11 13 8 4 5 9
10 10 9 11 13 13 14 14 14 13 14 11 6 3 6 9 9 9 5 11 7 10 9 4 3 10 12 13 14 15 16 18 17 17 14 12 13 15 5 12 12 10 12 10 4 8 6
12 10 10 10 12 12 12 13 13 13 15 11 7 1 5 8 15 14 10 9 9 6 9 9 7 8 7 13 3 7 14 12 15 19 17 9 11 8 5 10 11 10 10 0 7 6 6
13 13 11 11 11 11 12 12 12 12 14 14 7 3 4 7 11 16 17 16 13 11 9 6 8 5 6 7 5 11 9 2 17 9 2 6 4 4 7 8 10 9 10 8 7 8 7
Wind_Direction
7 7 13 11 11 11 6 4 4 3 360 355 350 345 341 337 334 331 329 327 323 313 309 308 309 314 301 223 255 124 186 170 185 220 248 277 286 313 42 100 136 93 112 112 101 136 91
7 6 5 7 7 6 5 4 3 1 358 355 350 345 342 336 333 329 326 321 316 307 300 301 305 313 245 252 67 147 181 187 210 211 233 246 339 352 274 24 31 108 261 118 138 119 126
4 2 3 4 1 2 1 1 2 357 355 352 349 345 340 336 332 327 323 317 309 298 291 293 300 295 265 248 345 179 218 219 219 238 250 227 311 294 354 162 101 198 170 153 134 140 130
2 360 359 0 359 358 354 359 360 354 352 353 349 344 337 335 329 324 319 312 298 286 281 279 286 268 262 201 275 228 227 225 229 245 258 318 285 279 267 304 194 215 250 147 127 154 156
356 355 355 356 355 353 350 348 344 345 343 342 342 339 330 328 324 320 312 305 289 271 250 265 249 230 246 117 215 217 216 222 199 225 235 299 265 272 244 227 207 209 202 123 144 169 238
351 350 352 352 351 348 346 344 344 347 344 343 341 339 335 328 324 321 313 294 314 236 214 223 265 255 233 207 194 200 212 235 203 211 217 228 243 245 224 232 270 190 86 141 211 133 201
348 346 348 348 348 345 344 342 344 347 341 339 339 336 335 327 321 321 314 205 206 195 217 240 163 261 132 88 83 222 197 210 225 210 215 207 231 236 240 35 358 10 301 253 101 97 236
340 338 341 344 346 344 343 342 342 344 341 339 337 332 331 325 318 315 277 256 23 353 282 216 240 253 271 277 200 203 193 205 211 214 214 221 229 256 87 277 265 264 253 132 119 185 259
319 332 336 340 344 345 345 342 339 342 339 336 334 329 326 321 316 273 241 277 335 311 259 204 208 220 209 209 227 190 196 206 203 217 209 231 197 184 216 207 232 233 256 105 135 181 242
303 321 329 337 342 346 345 339 337 340 336 333 331 328 324 320 289 347 237 213 243 290 267 170 190 206 200 209 225 198 197 207 219 223 221 223 231 168 195 249 234 317 88 144 236 243 168
302 315 331 342 349 347 338 336 333 336 334 331 326 319 317 325 317 242 33 260 267 240 252 145 149 130 177 206 168 214 184 222 228 221 224 208 234 188 223 234 299 78 235 265 294 283 271
303 318 334 342 337 327 334 333 328 335 331 328 322 317 317 208 219 268 301 280 240 230 242 153 142 186 177 206 189 171 200 227 231 226 242 230 221 183 214 239 216 313 218 215 234 245 259
286 306 322 323 319 329 336 337 331 325 329 324 313 307 276 305 314 241 218 231 218 244 121 153 174 176 193 187 203 165 194 197 213 219 216 228 216 209 231 219 188 227 247 217 218 271 10
267 285 306 316 318 326 336 340 332 321 330 323 312 312 187 233 227 254 225 225 249 210 210 131 180 178 197 182 200 187 192 202 216 215 208 204 215 188 184 245 212 211 253 285 303 280 180
257 273 303 314 323 327 329 330 327 321 328 325 309 196 227 204 232 222 230 226 223 246 252 191 187 189 199 183 204 198 202 208 201 223 238 189 220 183 208 204 244 216 241 289 311 220 246
266 262 312 335 336 332 327 329 326 325 329 330 301 255 170 140 180 213 235 243 242 358 331 284 202 201 196 186 211 202 193 204 206 215 238 191 215 187 211 209 252 268 296 209 221 252 243
299 349 2 351 345 338 332 330 329 331 331 326 254 227 103 161 186 217 226 240 248 194 248 261 246 188 218 189 198 194 191 198 190 193 240 243 217 163 195 196 224 202 244 260 273 271 203
43 29 8 352 348 342 338 333 334 338 338 303 281 232 133 172 200 217 224 238 267 224 190 263 304 305 222 198 197 224 218 209 207 187 219 241 215 168 197 204 221 251 208 232 219 123 356
12 5 359 349 342 336 335 330 331 339 11 310 264 122 162 211 225 216 223 239 249 221 250 250 236 232 261 235 204 212 200 202 182 207 207 229 238 164 168 174 208 249 252 275 92 234 181
6 353 346 341 337 334 334 325 323 329 344 283 270 210 147 213 257 287 221 224 235 225 247 264 261 265 237 231 187 214 205 194 192 212 192 252 241 166 111 320 184 218 156 255 300 298 213
351 346 342 340 335 327 321 316 324 323 332 278 240 253 99 184 224 243 261 209 218 216 213 229 224 244 236 220 198 196 219 172 190 196 181 239 242 129 164 237 84 352 260 158 295 334 333
343 341 340 337 335 332 322 323 332 320 323 254 300 316 353 273 191 220 234 255 233 214 248 232 232 199 228 226 198 198 198 171 195 166 197 219 224 204 152 198 180 200 117 327 347 323 296
334 333 336 339 339 336 354 339 351 342 328 303 16 287 267 275 257 212 217 216 231 240 260 259 217 248 211 237 204 209 215 180 173 178 202 213 178 200 214 208 222 236 184 170 23 308 355
342 340 336 341 342 342 329 347 354 2 351 315 312 293 270 259 231 205 219 212 229 237 259 261 214 247 261 257 254 264 187 170 180 190 196 213 222 189 234 185 220 79 75 70 0 25 333
338 340 337 341 343 354 5 4 6 2 345 308 307 289 292 278 294 238 196 256 256 246 235 248 264 252 277 239 224 210 218 188 177 190 210 197 207 219 143 200 132 149 144 153 193 131 147
318 337 335 340 343 348 353 359 2 1 351 313 299 334 279 300 349 2 327 295 272 224 181 226 197 238 247 221 199 206 173 137 141 189 235 204 203 222 224 263 305 99 113 103 85 265 122
311 315 330 333 337 338 342 346 350 355 347 321 290 241 273 276 279 341 302 343 336 299 273 136 194 195 222 244 177 192 176 169 175 187 196 198 194 220 156 248 115 119 132 128 233 91 132
326 310 313 319 326 330 338 337 343 349 347 329 315 62 289 293 298 296 298 308 314 312 322 36 236 223 240 258 190 189 162 184 168 161 186 177 213 226 166 44 255 139 146 58 97 140 127
323 320 304 304 318 330 330 333 337 342 342 337 271 141 284 264 299 320 285 279 278 294 310 312 326 357 8 282 324 100 298 172 138 141 108 200 56 44 42 18 120 110 81 111 118 123 140